Orbital Elements at Epoch 2458192.5 (2018-Mar-15.0) TDB
Reference: JPL K203/14 (heliocentric ecliptic J2000)
Element | Value | Uncertainty (1-sigma) | Units |
e | .5544741914895498 | 9.0485e-08 | |
a | 3.545046939189442 | 3.919e-08 | au |
q | 1.579409903789873 | 3.3163e-07 | au |
i | 18.27315822689063 | 9.9901e-06 | deg |
node | 271.0622344171499 | 1.989e-05 | deg |
peri | 172.8443964053496 | 4.3387e-05 | deg |
M | 261.0292201761839 | 1.0724e-05 | deg |
tp | 2458862.748581100163 (2020-Jan-14.24858110) | 6.7628e-05 | TDB |
period | 2437.987147576211 6.67 | 4.0427e-05 1.107e-07 | d yr |
n | .1476627964827064 | 2.4486e-09 | deg/d |
Q | 5.510683974589011 | 6.092e-08 | au |
|
| | Orbit Determination Parameters
Additional Information
|